Meteo Giornale » Osservazioni meteo Italia » Gioia Del Colle

ore: 13:55 - Osservazioni Meteo Gioia Del Colle
Lat. 40° 46' N Lon. 16° 56' E Alt. 345 metri s.l.m.

coperto_pioggia Europe/Rome

15 °C

Pioggia Debole

Temp. 24 Ore

15 °C

26 °C

Nord

18.5 Km/h

Dew point 15 °C

Umidità 100 %

Visibilità  6 Km

Il sole sorge alle ore 05:24

Il sole tramonta alle ore 20:13

Data e Ora Cielo e Fenomeni T °C DP °C Um. % Pres. hPa Vis. km Vento km/h
Oggi h: 13:55 coperto_pioggia Pioggia Debole 15 15 100 1014 6 N 18.5
Oggi h: 12:55 coperto_pioggia Pioggia Debole Foschia 16 15 93 1014 5 N 16.7
Oggi h: 12:09 coperto_pioggia Pioggia Foschia 16 15 93 1014 3 N 14.8
Oggi h: 11:55 coperto_pioggia Pioggia Debole 16 15 93 1014 7 N 14.8
Oggi h: 10:55 coperto_pioggia Pioggia Debole 16 16 100 1014 8 NO 13
Oggi h: 09:55 coperto_pioggia Pioggia 15 15 100 1014 5 NO 22.2
Oggi h: 08:55 coperto_pioggia Pioggia Debole 17 16 93 1014 8 O/NO 9.3
Oggi h: 07:55 coperto_pioggia Pioviggine Leggera 18 12 67 1013 8 O/NO 16.7
Oggi h: 06:55 sereno Sereno 16 14 87 1013 10 N 5.5
Oggi h: 05:55 sereno Sereno 15 13 87 1013 10 N 3.7
Oggi h: 04:55 sereno Sereno 16 13 82 1013 10 N 3.7
Oggi h: 03:55 sereno Sereno 16 12 77 1013 10 N 5.5
Oggi h: 02:55 sereno Sereno 16 11 72 1014 10 N 5.5
Oggi h: 01:55 sereno Sereno 16 11 72 1014 10 O 7.4
Oggi h: 00:55 sereno Sereno 16 13 82 1015 10 O 7.4
Ieri h: 23:55 sereno Sereno 17 13 77 1016 10 N 5.5
Ieri h: 22:55 sereno Sereno 18 14 77 1016 10 N 5.5
Ieri h: 21:55 sereno Sereno 19 13 68 1016 10 N 3.7
Ieri h: 20:55 sereno Sereno 19 11 59 1016 10 N 7.4
Ieri h: 19:55 sereno Sereno 21 9 46 1016 10 N 16.7
Ieri h: 18:55 poco_nuvoloso Poco Nuvoloso 23 8 38 1015 10 N 11.1
Ieri h: 17:55 nuvoloso Nuvoloso 24 8 35 1015 10 N 13
Ieri h: 16:55 nuvoloso Nuvoloso 25 6 29 1015 10 N 16.7
Ieri h: 15:55 poco_nuvoloso Poco Nuvoloso 25 7 31 1016 10 N/NE 16.7
Ieri h: 14:55 nuvoloso Nuvoloso 26 8 31 1016 10 N 14.8